Newton, KS

4:55 PM CST on February 24, 2018 (GMT -0600)
Newton City County

Weather History for KEWK - April, 2014

Change the Weather History Date:

Wednesday, April 9, 2014

  Actual Average Record
Temperature  
Mean Temperature 58 °F -  
Max Temperature 80 °F 61 °F 87 °F (2011)
Min Temperature 37 °F 40 °F 23 °F (2003)
Degree Days  
Heating Degree Days 6    
Growing Degree Days 8 (Base 50)    
Moisture  
Dew Point 27 °F    
Average Humidity 30    
Maximum Humidity 45    
Minimum Humidity 20    
Precipitation  
Precipitation 0.00 in - - ()
Sea Level Pressure  
Sea Level Pressure 29.99 in    
Wind  
Wind Speed 14 mph (SSW)    
Max Wind Speed 31 mph    
Max Gust Speed 38 mph    
Visibility 10 miles    
Events      
Averages and records for this station are not official NWS values.
T = Trace of Precipitation, MM = Missing Value Source: NWS Daily Summary

Daily Weather History Graph

Daily Weather History Graph

Search for Another Location

Airport or City:

Trip Planner

Search our weather history database for the weather conditions in past years. The results will help you decide how hot, cold, wet, or windy it might be!

Date:

Astronomy

Apr. 09, 2014 Rise Set
Actual Time 7:02 AM CDT 7:59 PM CDT
Civil Twilight 6:35 AM CDT 8:26 PM CDT
Nautical Twilight 6:03 AM CDT 8:58 PM CDT
Astronomical Twilight 5:30 AM CDT 9:31 PM CDT
Moon 2:53 PM CDT (4/9) 3:47 AM CDT (4/9)
Length of Visible Light 13h 51m
Length of Day
12h 57m
Waxing Gibbous, 72% of the Moon is Illuminated
Apr 9
Waxing Gibbous
Apr 15
Full
Apr 22
Last Quarter
Apr 29
New
May 6
First Quarter

Hourly Weather History & Observations

Time (CDT) Temp. Windchill Dew Point Humidity Pressure Visibility Wind Dir Wind Speed Gust Speed Precip Events Conditions
12:15 AM 44.6 °F 41.4 °F 14.0 °F 29% 30.14 in 10.0 mi SE 5.8 mph - N/A   Clear
12:35 AM 44.6 °F 41.4 °F 15.8 °F 31% 30.14 in 10.0 mi ESE 5.8 mph - N/A   Clear
12:55 AM 44.6 °F 41.4 °F 14.0 °F 29% 30.14 in 10.0 mi SE 5.8 mph - N/A   Clear
1:15 AM 42.8 °F 39.3 °F 14.0 °F 31% 30.14 in 10.0 mi SSE 5.8 mph - N/A   Clear
1:35 AM 41.0 °F 37.1 °F 14.0 °F 33% 30.14 in 10.0 mi SSE 5.8 mph - N/A   Clear
1:55 AM 41.0 °F 37.1 °F 14.0 °F 33% 30.13 in 10.0 mi SSE 5.8 mph - N/A   Clear
2:15 AM 39.2 °F 34.2 °F 14.0 °F 36% 30.13 in 10.0 mi South 6.9 mph - N/A   Clear
2:35 AM 39.2 °F 33.6 °F 14.0 °F 36% 30.13 in 10.0 mi South 8.1 mph - N/A   Clear
2:55 AM 39.2 °F 34.2 °F 15.8 °F 39% 30.13 in 10.0 mi SSW 6.9 mph - N/A   Clear
3:15 AM 39.2 °F 34.2 °F 15.8 °F 39% 30.13 in 10.0 mi South 6.9 mph - N/A   Clear
3:35 AM 39.2 °F 34.2 °F 14.0 °F 36% 30.12 in 10.0 mi South 6.9 mph - N/A   Clear
3:55 AM 37.4 °F 30.8 °F 15.8 °F 41% 30.12 in 10.0 mi South 9.2 mph - N/A   Clear
4:15 AM 39.2 °F 34.2 °F 15.8 °F 39% 30.12 in 10.0 mi South 6.9 mph - N/A   Clear
4:35 AM 39.2 °F 34.2 °F 15.8 °F 39% 30.12 in 10.0 mi South 6.9 mph - N/A   Clear
4:55 AM 37.4 °F 32.1 °F 15.8 °F 41% 30.12 in 10.0 mi South 6.9 mph - N/A   Clear
5:15 AM 39.2 °F 34.2 °F 17.6 °F 42% 30.12 in 10.0 mi SSW 6.9 mph - N/A   Clear
5:35 AM 37.4 °F 30.8 °F 17.6 °F 45% 30.12 in 10.0 mi South 9.2 mph - N/A   Clear
5:55 AM 37.4 °F 30.8 °F 17.6 °F 45% 30.12 in 10.0 mi SSW 9.2 mph - N/A   Clear
6:15 AM 37.4 °F 31.4 °F 17.6 °F 45% 30.12 in 10.0 mi South 8.1 mph - N/A   Clear
6:35 AM 37.4 °F 30.8 °F 17.6 °F 45% 30.11 in 10.0 mi South 9.2 mph - N/A   Clear
6:55 AM 37.4 °F 30.3 °F 17.6 °F 45% 30.12 in 10.0 mi SSW 10.4 mph - N/A   Clear
7:15 AM 39.2 °F 32.0 °F 17.6 °F 42% 30.12 in 10.0 mi South 11.5 mph - N/A   Clear
7:35 AM 42.8 °F 37.5 °F 19.4 °F 39% 30.12 in 10.0 mi South 9.2 mph - N/A   Clear
7:55 AM 42.8 °F 37.0 °F 19.4 °F 39% 30.12 in 10.0 mi South 10.4 mph - N/A   Clear
8:15 AM 44.6 °F 38.8 °F 21.2 °F 39% 30.12 in 10.0 mi South 11.5 mph - N/A   Clear
8:35 AM 48.2 °F - 21.2 °F 34% 30.12 in 10.0 mi South 11.5 mph 17.3 mph N/A   Clear
8:55 AM 51.8 °F - 21.2 °F 30% 30.11 in 10.0 mi SSW 13.8 mph - N/A   Clear
9:15 AM 53.6 °F - 24.8 °F 33% 30.11 in 10.0 mi SSW 20.7 mph 26.5 mph N/A   Clear
9:35 AM 57.2 °F - 26.6 °F 31% 30.10 in 10.0 mi South 19.6 mph - N/A   Clear
9:55 AM 59.0 °F - 26.6 °F 29% 30.09 in 10.0 mi SSW 19.6 mph 25.3 mph N/A   Clear
10:15 AM 62.6 °F - 26.6 °F 26% 30.09 in 10.0 mi SSW 24.2 mph 29.9 mph N/A   Clear
10:35 AM 62.6 °F - 28.4 °F 27% 30.08 in 10.0 mi SSW 23.0 mph 28.8 mph N/A   Clear
10:55 AM 64.4 °F - 30.2 °F 28% 30.07 in 10.0 mi SSW 27.6 mph 33.4 mph N/A   Clear
11:15 AM 64.4 °F - 30.2 °F 28% 30.07 in 10.0 mi SSW 28.8 mph 34.5 mph N/A   Clear
11:35 AM 66.2 °F - 30.2 °F 26% 30.05 in 10.0 mi SSW 23.0 mph 35.7 mph N/A   Clear
11:55 AM 69.8 °F - 32.0 °F 25% 30.04 in 10.0 mi SSW 27.6 mph 33.4 mph N/A   Clear
12:15 PM 69.8 °F - 32.0 °F 25% 30.02 in 10.0 mi South 27.6 mph 34.5 mph N/A   Clear
12:35 PM 71.6 °F - 33.8 °F 25% 30.01 in 10.0 mi SSW 28.8 mph 35.7 mph N/A   Clear
12:55 PM 73.4 °F - 33.8 °F 23% 30.00 in 10.0 mi SSW 27.6 mph 36.8 mph N/A   Clear
1:15 PM 73.4 °F - 33.8 °F 23% 29.99 in 10.0 mi SSW 28.8 mph 35.7 mph N/A   Clear
1:35 PM 73.4 °F - 33.8 °F 23% 29.97 in 10.0 mi SSW 29.9 mph 34.5 mph N/A   Clear
1:55 PM 75.2 °F - 35.6 °F 24% 29.96 in 10.0 mi SSW 28.8 mph 36.8 mph N/A   Clear
2:15 PM 75.2 °F - 35.6 °F 24% 29.95 in 10.0 mi SSW 28.8 mph 36.8 mph N/A   Clear
2:35 PM 77.0 °F - 35.6 °F 22% 29.93 in 10.0 mi SSW 29.9 mph 38.0 mph N/A   Clear
2:55 PM 77.0 °F - 35.6 °F 22% 29.93 in 10.0 mi SSW 28.8 mph 34.5 mph N/A   Clear
3:15 PM 78.8 °F - 35.6 °F 21% 29.92 in 10.0 mi SSW 26.5 mph 33.4 mph N/A   Clear
3:35 PM 78.8 °F - 35.6 °F 21% 29.91 in 10.0 mi SSW 24.2 mph 33.4 mph N/A   Clear
3:55 PM 80.6 °F - 37.4 °F 21% 29.90 in 10.0 mi SSW 21.9 mph 29.9 mph N/A   Clear
4:15 PM 80.6 °F - 35.6 °F 20% 29.88 in 10.0 mi SSW 25.3 mph 36.8 mph N/A   Clear
4:35 PM 80.6 °F - 35.6 °F 20% 29.87 in 10.0 mi SSW 31.1 mph 35.7 mph N/A   Clear
4:55 PM 80.6 °F - 35.6 °F 20% 29.86 in 10.0 mi SSW 28.8 mph 33.4 mph N/A   Clear
5:15 PM 80.6 °F - 35.6 °F 20% 29.85 in 10.0 mi SSW 27.6 mph 33.4 mph N/A   Clear
5:35 PM 80.6 °F - 35.6 °F 20% 29.85 in 10.0 mi SSW 24.2 mph 33.4 mph N/A   Clear
5:55 PM 80.6 °F - 35.6 °F 20% 29.84 in 10.0 mi SSW 24.2 mph 29.9 mph N/A   Clear
6:15 PM 80.6 °F - 37.4 °F 21% 29.84 in 10.0 mi SSW 21.9 mph - N/A   Clear
6:35 PM 78.8 °F - 37.4 °F 23% 29.83 in 10.0 mi SSW 24.2 mph 29.9 mph N/A   Clear
6:55 PM 77.0 °F - 35.6 °F 22% 29.83 in 10.0 mi South 18.4 mph 28.8 mph N/A   Clear
7:15 PM 75.2 °F - 35.6 °F 24% 29.82 in 10.0 mi South 18.4 mph 24.2 mph N/A   Clear
7:35 PM 75.2 °F - 35.6 °F 24% 29.82 in 10.0 mi South 17.3 mph - N/A   Clear
7:55 PM 73.4 °F - 35.6 °F 25% 29.82 in 10.0 mi South 16.1 mph - N/A   Clear
8:15 PM 73.4 °F - 33.8 °F 23% 29.81 in 10.0 mi South 17.3 mph - N/A   Clear
8:35 PM 71.6 °F - 33.8 °F 25% 29.81 in 10.0 mi South 16.1 mph - N/A   Clear
8:55 PM 71.6 °F - 35.6 °F 27% 29.82 in 10.0 mi South 17.3 mph - N/A   Clear
9:15 PM 71.6 °F - 35.6 °F 27% 29.82 in 10.0 mi South 20.7 mph 26.5 mph N/A   Clear
9:35 PM 69.8 °F - 35.6 °F 28% 29.82 in 10.0 mi South 20.7 mph 26.5 mph N/A   Clear
9:55 PM 69.8 °F - 35.6 °F 28% 29.83 in 10.0 mi SSW 20.7 mph 29.9 mph N/A   Clear
10:15 PM 69.8 °F - 35.6 °F 28% 29.83 in 10.0 mi SSW 20.7 mph 27.6 mph N/A   Clear
10:35 PM 69.8 °F - 35.6 °F 28% 29.83 in 10.0 mi SSW 19.6 mph - N/A   Clear
10:55 PM 69.8 °F - 35.6 °F 28% 29.82 in 10.0 mi South 20.7 mph 29.9 mph N/A   Clear
11:15 PM 68.0 °F - 35.6 °F 30% 29.82 in 10.0 mi South 17.3 mph 25.3 mph N/A   Clear
11:35 PM 66.2 °F - 35.6 °F 32% 29.82 in 10.0 mi South 21.9 mph 26.5 mph N/A   Clear
11:55 PM 66.2 °F - 35.6 °F 32% 29.82 in 10.0 mi South 18.4 mph - N/A   Clear